Location: Hohenfelde
(53.8441°N, 9.6220°E)
Time: 11:40:33
(UTC+00:00)

Cosmos 2061 Rocket - Pass Details

Date: 14 July 2020
Orbit: 965 x 1013 km, 82.9° (Epoch: 12 August)

Event Time Altitude Azimuth Distance (km) Brightness Sun altitude
Exits shadow 01:41:58 11° 201° (SSW) 2,714 5.7 -9.2°
Maximum altitude 01:48:09 67° 284° (WNW) 1,070 4.2 -8.7°
Drops below altitude 10° 01:54:26 10° 7° (N) 2,748 7.5 -8.2°
Sets 01:56:58 0° 11° (N) 3,693 8.4 -7.9°
